TimeCST,TemperatureF,Dew PointF,Humidity,Sea Level PressureIn,VisibilityMPH,Wind Direction,Wind SpeedMPH,Gust SpeedMPH,PrecipitationIn,Events,Conditions,WindDirDegrees,DateUTC
12:52 AM,30.0,28.9,96,30.43,7.0,Calm,Calm,-,N/A,,Clear,0,2012-11-16 06:52:00
1:52 AM,30.0,27.0,88,30.44,7.0,Calm,Calm,-,N/A,,Clear,0,2012-11-16 07:52:00
2:52 AM,30.0,28.0,92,30.45,7.0,Calm,Calm,-,N/A,,Clear,0,2012-11-16 08:52:00
3:52 AM,27.0,24.1,89,30.45,7.0,Calm,Calm,-,N/A,,Clear,0,2012-11-16 09:52:00
4:52 AM,27.0,26.1,96,30.44,7.0,Calm,Calm,-,N/A,,Clear,0,2012-11-16 10:52:00
5:52 AM,27.0,25.0,92,30.45,7.0,Calm,Calm,-,N/A,,Clear,0,2012-11-16 11:52:00
6:41 AM,26.6,24.8,93,30.41,7.0,Calm,Calm,-,N/A,,Scattered Clouds,0,2012-11-16 12:41:00
6:52 AM,27.0,25.0,92,30.45,7.0,Calm,Calm,-,N/A,,Partly Cloudy,0,2012-11-16 12:52:00
7:52 AM,28.0,26.1,92,30.48,7.0,Calm,Calm,-,N/A,,Clear,0,2012-11-16 13:52:00
8:52 AM,35.1,32.0,89,30.49,7.0,Calm,Calm,-,N/A,,Clear,0,2012-11-16 14:52:00
9:52 AM,41.0,34.0,76,30.48,10.0,ENE,4.6,-,N/A,,Clear,60,2012-11-16 15:52:00
10:52 AM,46.9,37.0,68,30.46,10.0,Calm,Calm,-,N/A,,Clear,0,2012-11-16 16:52:00
11:52 AM,54.0,37.0,53,30.43,10.0,ENE,3.5,-,N/A,,Clear,70,2012-11-16 17:52:00
12:52 PM,59.0,37.0,44,30.39,10.0,East,4.6,-,N/A,,Clear,80,2012-11-16 18:52:00
1:52 PM,61.0,34.0,36,30.37,10.0,ESE,4.6,-,N/A,,Clear,110,2012-11-16 19:52:00
2:52 PM,62.1,34.0,35,30.35,10.0,SSE,9.2,-,N/A,,Clear,160,2012-11-16 20:52:00
3:52 PM,61.0,34.0,36,30.35,10.0,South,8.1,-,N/A,,Clear,180,2012-11-16 21:52:00
4:52 PM,55.0,35.1,47,30.35,2.5,South,4.6,-,N/A,,Haze,170,2012-11-16 22:52:00
5:01 PM,53.6,35.6,51,30.33,1.2,SSE,4.6,-,N/A,,Haze,160,2012-11-16 23:01:00
5:11 PM,53.6,35.6,51,30.32,10.0,SSE,4.6,-,N/A,,Clear,160,2012-11-16 23:11:00
5:52 PM,52.0,35.1,53,30.35,10.0,Calm,Calm,-,N/A,,Clear,0,2012-11-16 23:52:00
6:52 PM,43.0,34.0,71,30.36,10.0,Calm,Calm,-,N/A,,Clear,0,2012-11-17 00:52:00
7:52 PM,46.0,35.1,66,30.35,10.0,South,3.5,-,N/A,,Clear,170,2012-11-17 01:52:00
8:52 PM,46.9,35.1,63,30.34,10.0,SSE,5.8,-,N/A,,Clear,160,2012-11-17 02:52:00
9:52 PM,45.0,35.1,68,30.35,10.0,Calm,Calm,-,N/A,,Clear,0,2012-11-17 03:52:00
10:52 PM,44.1,34.0,68,30.34,10.0,Calm,Calm,-,N/A,,Clear,0,2012-11-17 04:52:00
11:52 PM,45.0,34.0,65,30.34,10.0,South,3.5,-,N/A,,Clear,170,2012-11-17 05:52:00